This demonstration page uses our WeatherBlox Daily Observations layout. Learn more.

Hourly Observations for October 1, 2020

Temp ( °F °C ) Dew Point ( °F °C ) Humidity (%) Winds ( mph kmh ) Pressure ( in mb ) Visibility ( mi km ) Precip ( " mm )
12:15 am 00:15 Partly Cloudy 54 12 27 -2.6 36 36 WNW 9 15 30.25 1024 10 16.0934 0 0
12:35 am 00:35 Mostly Cloudy 54 12 28 -2.5 37 37 WNW 9 15 30.25 1024 10 16.0934 0 0
12:55 am 00:55 Mostly Cloudy 53 11.5 28 -2.3 38 38 NW 7 11 30.23 1024 10 16.0934 0 0
1:15 am 01:15 Partly Cloudy 54 12 28 -2.5 37 37 NW 7 11 30.25 1024 10 16.0934 0 0
1:35 am 01:35 Partly Cloudy 54 12 28 -2.5 37 37 NW 8 13 30.26 1025 10 16.0934 0 0
1:55 am 01:55 Partly Cloudy 54 12.2 27 -2.7 36 36 NW 8 13 30.26 1025 10 16.0934 0 0
2:15 am 02:15 Clear 53 11.6 27 -2.7 37 37 NW 8 13 30.26 1025 10 16.0934 0 0
2:35 am 02:35 Clear 51 10.6 27 -3 39 39 NW 8 13 30.27 1025 10 16.0934 0 0
2:55 am 02:55 Clear 51 10.6 26 -3.5 37 37 NNW 9 15 30.28 1025 10 16.0934 0 0
3:15 am 03:15 Partly Cloudy 51 10.5 26 -3.5 38 38 NNW 8 13 30.29 1026 10 16.0934 0 0
3:35 am 03:35 Clear 49 9.6 27 -3 41 41 NW 7 11 30.28 1025 10 16.0934 0 0
3:55 am 03:55 Partly Cloudy 47 8.5 27 -2.7 46 46 NW 6 9 30.3 1026 10 16.0934 0 0
4:15 am 04:15 Mostly Cloudy 48 9 27 -2.7 44 44 NNW 8 13 30.31 1026 10 16.0934 0 0
4:35 am 04:35 Mostly Cloudy 51 10.8 26 -3.5 37 37 NNW 13 20 30.31 1026 10 16.0934 0 0
4:55 am 04:55 Partly Cloudy 49 9.5 26 -3.2 41 41 NNW 8 13 30.31 1026 10 16.0934 0 0
5:15 am 05:15 Clear 47 8.6 27 -3 44 44 NNW 10 17 30.33 1027 10 16.0934 0 0
5:35 am 05:35 Clear 47 8.1 27 -3 46 46 NNW 9 15 30.34 1027 10 16.0934 0 0
5:55 am 05:55 Clear 46 7.8 27 -3 47 47 NNW 10 17 30.36 1028 10 16.0934 0 0
6:15 am 06:15 Clear 46 7.5 27 -2.9 48 48 NNW 7 11 30.38 1029 10 16.0934 0 0
6:35 am 06:35 Clear 43 6.3 27 -2.7 53 53 NW 7 11 30.4 1029 10 16.0934 0 0
6:55 am 06:55 Clear 42 5.4 27 -2.7 56 56 NW 6 9 30.41 1030 10 16.0934 0 0
7:15 am 07:15 Clear 40 4.5 27 -2.6 60 60 NW 7 11 30.42 1030 10 16.0934 0 0
7:35 am 07:35 Sunny 41 4.9 28 -2.5 59 59 WNW 7 11 30.44 1031 10 16.0934 0 0
7:55 am 07:55 Sunny 40 4.6 28 -2.4 61 61 WNW 6 9 30.46 1032 10 16.0934 0 0
8:15 am 08:15 Sunny 42 5.5 28 -2.2 58 58 WNW 6 9 30.45 1031 10 16.0934 0 0
8:35 am 08:35 Sunny 45 7 29 -1.9 53 53 WNW 7 11 30.44 1031 10 16.0934 0 0
8:55 am 08:55 Sunny 46 7.6 29 -1.6 52 52 WNW 7 11 30.43 1031 10 16.0934 0 0
9:15 am 09:15 Sunny 48 8.7 30 -1.3 50 50 NW 9 15 30.43 1031 10 16.0934 0 0
9:35 am 09:35 Sunny 49 9.2 30 -1.1 49 49 NW 10 17 30.43 1030 10 16.0934 0 0
9:55 am 09:55 Sunny 50 9.8 30 -1 47 47 NNW 14 22 30.42 1030 10 16.0934 0 0
10:15 am 10:15 Sunny 51 10.3 31 -0.8 46 46 NNW 10 17 30.42 1030 10 16.0934 0 0
10:35 am 10:35 Sunny 52 10.9 30 -1 44 44 N 14 22 30.42 1030 10 16.0934 0 0
10:55 am 10:55 Sunny 54 12 30 -1.1 41 41 NNW 15 24 30.41 1030 10 16.0934 0 0
11:15 am 11:15 Sunny 54 12.1 29 -1.7 39 39 NNW 17 28 30.4 1030 10 16.0934 0 0
11:35 am 11:35 Sunny 55 12.5 29 -1.5 38 38 NNW 16 26 30.42 1030 10 16.0934 0 0
11:55 am 11:55 Sunny 55 13 29 -1.7 36 36 NNW 16 26 30.41 1030 10 16.0934 0 0
12:15 pm 12:15 Sunny 56 13.6 29 -1.6 35 35 NNW 16 26 30.39 1029 10 16.0934 0 0
12:35 pm 12:35 Sunny 57 13.9 29 -1.5 35 35 NW 15 24 30.38 1029 10 16.0934 0 0
12:55 pm 12:55 Sunny 58 14.2 29 -1.4 34 34 N 15 24 30.38 1029 10 16.0934 0 0
1:15 pm 13:15 Sunny 58 14.3 29 -1.6 34 34 NW 14 22 30.37 1029 10 16.0934 0 0
1:35 pm 13:35 Sunny 59 15.1 30 -1.2 33 33 NNW 15 24 30.36 1028 10 16.0934 0 0
1:55 pm 13:55 Sunny 59 14.8 29 -1.9 32 32 NNW 13 20 30.35 1028 10 16.0934 0 0
2:15 pm 14:15 Sunny 59 15.1 29 -1.8 31 31 NNW 10 17 30.34 1027 10 16.0934 0 0
2:35 pm 14:35 Sunny 60 15.7 29 -1.8 30 30 NNW 13 20 30.31 1027 10 16.0934 0 0
2:55 pm 14:55 Sunny 60 15.6 28 -2.3 29 29 N 12 19 30.3 1026 10 16.0934 0 0
3:15 pm 15:15 Sunny 60 15.8 28 -2.1 29 29 NW 12 19 30.3 1026 10 16.0934 0 0
3:35 pm 15:35 Sunny 60 15.8 28 -2.4 29 29 NW 10 17 30.29 1026 10 16.0934 0 0
3:55 pm 15:55 Sunny 61 16 27 -2.6 28 28 NW 12 19 30.28 1025 10 16.0934 0 0
4:15 pm 16:15 Sunny 62 16.5 28 -2.4 28 28 N 10 17 30.28 1025 10 16.0934 0 0
4:35 pm 16:35 Sunny 61 16.3 27 -2.9 27 27 NNW 10 17 30.26 1025 10 16.0934 0 0
4:55 pm 16:55 Sunny 61 16.2 27 -2.7 27 27 N 12 19 30.27 1025 10 16.0934 0 0
5:15 pm 17:15 Sunny 61 15.9 27 -2.8 28 28 NNW 8 13 30.26 1025 10 16.0934 0 0
5:35 pm 17:35 Sunny 60 15.7 27 -2.7 28 28 NNW 7 11 30.25 1024 10 16.0934 0 0
5:55 pm 17:55 Sunny 60 15.7 28 -2.4 29 29 N 7 11 30.26 1025 10 16.0934 0 0
6:15 pm 18:15 Sunny 59 15.1 27 -2.8 29 29 N 6 9 30.26 1025 10 16.0934 0 0
6:35 pm 18:35 Sunny 58 14.6 27 -2.7 30 30 N 6 9 30.25 1024 10 16.0934 0 0
6:55 pm 18:55 Sunny 56 13.3 28 -2.1 35 35 N 5 7 30.27 1025 10 16.0934 0 0
7:15 pm 19:15 Sunny 54 12.1 28 -2.1 37 37 N 3 6 30.27 1025 10 16.0934 0 0
7:35 pm 19:35 Clear 51 10.5 30 -1.1 45 45 Calm 30.29 1026 10 16.0934 0 0
7:55 pm 19:55 Clear 49 9.4 31 -0.5 50 50 NE 3 6 30.31 1026 10 16.0934 0 0
8:15 pm 20:15 Clear 47 8.2 31 -0.5 55 55 Calm 30.32 1027 10 16.0934 0 0
8:35 pm 20:35 Clear 48 9 30 -1.3 49 49 Calm 30.32 1027 10 16.0934 0 0
8:55 pm 20:55 Clear 46 8 30 -0.9 54 54 Calm 30.32 1027 10 16.0934 0 0
9:15 pm 21:15 Clear 45 7 29 -1.4 55 55 Calm 30.33 1027 7 11.26538 0 0
9:35 pm 21:35 Clear 45 7.1 30 -1 57 57 Calm 30.33 1027 7 11.26538 0 0
9:55 pm 21:55 Clear 44 6.5 31 -0.6 61 61 Calm 30.33 1027 10 16.0934 0 0
10:15 pm 22:15 Clear 44 6.4 32 0 64 64 E 3 6 30.35 1028 10 16.0934 0 0
10:35 pm 22:35 Clear 44 6.7 31 -0.5 60 60 Calm 30.34 1028 10 16.0934 0 0
10:55 pm 22:55 Clear 43 6.2 31 -0.5 63 63 Calm 30.34 1027 10 16.0934 0 0
11:15 pm 23:15 Clear 43 6.1 32 -0.2 64 64 Calm 30.33 1027 7 11.26538 0 0
11:35 pm 23:35 Clear 43 6.1 30 -0.9 61 61 ESE 5 7 30.32 1027 10 16.0934 0 0
11:55 pm 23:55 Clear 42 5.5 30 -1 63 63 Calm 30.32 1027 10 16.0934 0 0

Powered by AerisWeather